| time (UTC) | temp C | wind direction | speed KPH | gust KPH | rain 1hr cm | rain 24hr cm | rain mn cm | humidity % | barometer mb |
| 20260906130103 | 15 | 63 | 11.3 | 0.0 | 0.00 | 0.00 | 0.00 | 86 | 994.6 |
| 20260906124609 | 15 | 60 | 11.3 | 0.0 | 0.00 | 0.00 | 0.00 | 92 | 994.4 |
| 20260906123119 | 14 | 63 | 9.7 | 0.0 | 0.00 | 0.00 | 0.00 | 92 | 994.4 |
| 20260906121609 | 13 | 63 | 9.7 | 0.0 | 0.00 | 0.00 | 0.00 | 92 | 994.4 |
| 20260906120105 | 13 | 60 | 9.7 | 0.0 | 0.00 | 0.00 | 0.00 | 92 | 994.4 |
| 20260906114611 | 12 | 58 | 8.0 | 0.0 | 0.00 | 0.00 | 0.00 | 90 | 992.8 |
| 20260906113109 | 12 | 50 | 8.0 | 0.0 | 0.00 | 0.00 | 0.00 | 88 | 994.2 |
| 20260906111609 | 13 | 61 | 8.0 | 0.0 | 0.00 | 0.00 | 0.00 | 88 | 994.2 |
| 20260906110112 | 13 | 64 | 8.0 | 0.0 | 0.00 | 0.00 | 0.00 | 88 | 994.2 |
| 20260906104609 | 13 | 57 | 8.0 | 0.0 | 0.00 | 0.00 | 0.00 | 84 | 993.4 |
| 20260906103113 | 13 | 51 | 6.4 | 0.0 | 0.00 | 0.00 | 0.00 | 86 | 994.2 |
| 20260906101604 | 13 | 58 | 8.0 | 0.0 | 0.00 | 0.00 | 0.00 | 86 | 994.2 |
| 20260906100115 | 13 | 59 | 8.0 | 0.0 | 0.00 | 0.00 | 0.00 | 86 | 994.2 |
| 20260906094612 | 13 | 54 | 6.4 | 0.0 | 0.00 | 0.00 | 0.00 | 88 | 993.5 |
| 20260906093112 | 13 | 45 | 6.4 | 0.0 | 0.00 | 0.00 | 0.00 | 85 | 994.1 |
| 20260906091609 | 13 | 56 | 6.4 | 0.0 | 0.00 | 0.00 | 0.00 | 85 | 994.1 |
| 20260906090115 | 14 | 60 | 6.4 | 0.0 | 0.00 | 0.00 | 0.00 | 85 | 994.1 |
| 20260906084612 | 14 | 60 | 6.4 | 0.0 | 0.00 | 0.00 | 0.00 | 85 | 993.1 |
| 20260906083109 | 14 | 56 | 6.4 | 0.0 | 0.00 | 0.00 | 0.00 | 79 | 993.5 |
| 20260906081607 | 15 | 65 | 9.7 | 0.0 | 0.00 | 0.00 | 0.00 | 79 | 993.6 |
| 20260906080131 | 15 | 66 | 9.7 | 0.0 | 0.00 | 0.00 | 0.00 | 76 | 993.4 |
| 20260906074610 | 15 | 67 | 9.7 | 0.0 | 0.00 | 0.00 | 0.00 | 75 | 992.5 |
| 20260906073109 | 15 | 65 | 8.0 | 0.0 | 0.00 | 0.00 | 0.00 | 75 | 992.5 |
| 20260906071611 | 15 | 69 | 8.0 | 0.0 | 0.00 | 0.00 | 0.00 | 75 | 992.5 |
| 20260906070113 | 16 | 71 | 9.7 | 0.0 | 0.00 | 0.00 | 0.00 | 75 | 992.5 |
| 20260906064620 | 16 | 75 | 9.7 | 0.0 | 0.00 | 0.00 | 0.00 | 74 | 992.0 |
| 20260906063115 | 16 | 78 | 9.7 | 0.0 | 0.00 | 0.00 | 0.00 | 70 | 992.4 |
| 20260906061609 | 16 | 76 | 9.7 | 0.0 | 0.00 | 0.00 | 0.00 | 70 | 992.4 |
| 20260906060114 | 16 | 76 | 9.7 | 0.0 | 0.00 | 0.00 | 0.00 | 70 | 992.4 |
| 20260906054611 | 16 | 81 | 9.7 | 0.0 | 0.00 | 0.00 | 0.00 | 70 | 992.6 |
| 20260906053106 | 16 | 77 | 9.7 | 0.0 | 0.00 | 0.00 | 0.00 | 68 | 992.3 |
| 20260906051610 | 17 | 80 | 9.7 | 0.0 | 0.00 | 0.00 | 0.00 | 68 | 992.3 |
| 20260906050113 | 17 | 73 | 9.7 | 0.0 | 0.00 | 0.00 | 0.00 | 68 | 992.3 |
| 20260906044610 | 17 | 74 | 11.3 | 0.0 | 0.00 | 0.00 | 0.00 | 71 | 992.2 |
| 20260906043116 | 17 | 72 | 12.9 | 0.0 | 0.00 | 0.00 | 0.00 | 71 | 992.1 |
| 20260906041609 | 17 | 69 | 11.3 | 0.0 | 0.00 | 0.00 | 0.00 | 71 | 992.1 |
| 20260906040105 | 18 | 69 | 11.3 | 0.0 | 0.00 | 0.00 | 0.00 | 71 | 992.1 |
| 20260906034604 | 18 | 70 | 11.3 | 0.0 | 0.00 | 0.00 | 0.00 | 72 | 991.9 |
| 20260906033111 | 18 | 69 | 9.7 | 0.0 | 0.00 | 0.00 | 0.00 | 77 | 992.3 |
| 20260906031609 | 18 | 65 | 9.7 | 0.0 | 0.00 | 0.00 | 0.00 | 77 | 992.3 |
| 20260906030112 | 19 | 63 | 9.7 | 0.0 | 0.00 | 0.00 | 0.00 | 77 | 992.3 |
| 20260906024609 | 19 | 58 | 9.7 | 0.0 | 0.00 | 0.00 | 0.00 | 74 | 990.8 |
| 20260906023105 | 20 | 61 | 9.7 | 0.0 | 0.00 | 0.00 | 0.00 | 73 | 991.3 |
| 20260906021603 | 20 | 63 | 11.3 | 0.0 | 0.00 | 0.00 | 0.00 | 73 | 991.3 |
| 20260906015116 | 20 | 58 | 11.3 | 0.0 | 0.00 | 0.00 | 0.00 | 74 | 990.6 |
| 20260906013107 | 20 | 56 | 9.7 | 0.0 | 0.00 | 0.00 | 0.00 | 74 | 990.6 |
| 20260906011608 | 20 | 60 | 12.9 | 0.0 | 0.00 | 0.00 | 0.00 | 74 | 990.5 |
| 20260906010122 | 21 | 59 | 11.3 | 0.0 | 0.00 | 0.00 | 0.00 | 74 | 990.5 |
| 20260906004607 | 21 | 53 | 9.7 | 0.0 | 0.00 | 0.00 | 0.00 | 78 | 990.7 |
| 20260906003115 | 21 | 37 | 8.0 | 0.0 | 0.00 | 0.00 | 0.00 | 72 | 990.7 |
| 20260906001607 | 21 | 35 | 8.0 | 0.0 | 0.00 | 0.00 | 0.00 | 72 | 990.7 |
| 20260906000116 | 22 | 35 | 8.0 | 0.0 | 0.00 | 0.00 | 0.00 | 72 | 990.7 |
| 20260905234613 | 22 | 31 | 8.0 | 0.0 | 0.00 | 0.00 | 0.00 | 68 | 990.5 |
| 20260905233109 | 22 | 38 | 8.0 | 0.0 | 0.00 | 0.00 | 0.00 | 68 | 990.5 |
| 20260905231612 | 23 | 42 | 9.7 | 0.0 | 0.00 | 0.00 | 0.00 | 68 | 990.5 |
| 20260905230113 | 23 | 45 | 9.7 | 0.0 | 0.00 | 0.00 | 0.00 | 68 | 990.5 |
| 20260905224613 | 23 | 47 | 11.3 | 0.0 | 0.00 | 0.00 | 0.00 | 73 | 990.3 |
| 20260905223105 | 24 | 52 | 9.7 | 0.0 | 0.00 | 0.00 | 0.00 | 71 | 990.8 |
| 20260905221607 | 24 | 56 | 11.3 | 0.0 | 0.00 | 0.00 | 0.00 | 71 | 990.8 |
| 20260905220106 | 24 | 55 | 11.3 | 0.0 | 0.00 | 0.00 | 0.00 | 71 | 990.8 |
| 20260905214612 | 24 | 51 | 11.3 | 0.0 | 0.00 | 0.00 | 0.00 | 77 | 990.5 |
| 20260905213114 | 24 | 53 | 11.3 | 0.0 | 0.00 | 0.00 | 0.00 | 75 | 990.9 |
| 20260905211607 | 23 | 57 | 11.3 | 0.0 | 0.00 | 0.00 | 0.00 | 75 | 990.9 |
| 20260905210114 | 23 | 58 | 12.9 | 0.0 | 0.00 | 0.00 | 0.00 | 75 | 990.9 |
| 20260905204612 | 23 | 57 | 12.9 | 0.0 | 0.00 | 0.00 | 0.00 | 84 | 990.1 |
| 20260905203112 | 23 | 54 | 12.9 | 0.0 | 0.00 | 0.00 | 0.00 | 83 | 990.4 |
| 20260905201612 | 22 | 45 | 11.3 | 0.0 | 0.00 | 0.00 | 0.00 | 83 | 990.4 |
| 20260905200119 | 22 | 45 | 12.9 | 0.0 | 0.00 | 0.00 | 0.00 | 83 | 990.4 |
| 20260905194613 | 22 | 46 | 12.9 | 0.0 | 0.00 | 0.00 | 0.00 | 79 | 990.4 |
| 20260905193113 | 22 | 47 | 12.9 | 0.0 | 0.00 | 0.00 | 0.00 | 79 | 990.4 |
| 20260905191606 | 22 | 38 | 9.7 | 0.0 | 0.00 | 0.00 | 0.00 | 79 | 990.5 |
| 20260905190121 | 22 | 49 | 9.7 | 0.0 | 0.00 | 0.00 | 0.00 | 79 | 990.5 |
| 20260905184614 | 22 | 58 | 9.7 | 0.0 | 0.00 | 0.00 | 0.00 | 83 | 991.2 |
| 20260905183113 | 22 | 56 | 9.7 | 0.0 | 0.00 | 0.00 | 0.00 | 80 | 991.3 |
| 20260905181612 | 23 | 69 | 11.3 | 0.0 | 0.00 | 0.00 | 0.00 | 80 | 991.3 |
| 20260905180114 | 22 | 66 | 11.3 | 0.0 | 0.00 | 0.00 | 0.00 | 80 | 991.3 |
| 20260905174612 | 22 | 56 | 11.3 | 0.0 | 0.00 | 0.00 | 0.00 | 80 | 991.6 |
| 20260905173113 | 23 | 58 | 11.3 | 0.0 | 0.00 | 0.00 | 0.00 | 80 | 990.8 |
| 20260905171613 | 23 | 67 | 8.0 | 0.0 | 0.00 | 0.00 | 0.00 | 80 | 990.8 |
| 20260905170123 | 23 | 76 | 8.0 | 0.0 | 0.00 | 0.00 | 0.00 | 80 | 990.8 |
| 20260905164613 | 22 | 85 | 8.0 | 0.0 | 0.00 | 0.00 | 0.00 | 87 | 991.1 |
| 20260905163113 | 22 | 88 | 8.0 | 0.0 | 0.00 | 0.00 | 0.00 | 80 | 990.1 |
| 20260905161610 | 23 | 86 | 9.7 | 0.0 | 0.00 | 0.00 | 0.00 | 80 | 990.2 |
| 20260905160107 | 23 | 88 | 9.7 | 0.0 | 0.00 | 0.00 | 0.00 | 80 | 990.2 |
| 20260905154607 | 22 | 86 | 9.7 | 0.0 | 0.00 | 0.00 | 0.00 | 85 | 991.5 |
| 20260905153112 | 22 | 79 | 11.3 | 0.0 | 0.00 | 0.00 | 0.00 | 86 | 990.2 |
| 20260905151607 | 22 | 66 | 12.9 | 0.0 | 0.00 | 0.00 | 0.00 | 86 | 990.2 |
| 20260905150107 | 21 | 73 | 12.9 | 0.0 | 0.00 | 0.00 | 0.00 | 86 | 990.2 |
| 20260905144620 | 21 | 74 | 11.3 | 0.0 | 0.00 | 0.00 | 0.00 | 90 | 990.8 |
| 20260905143104 | 21 | 68 | 11.3 | 0.0 | 0.00 | 0.00 | 0.00 | 88 | 990.3 |
| 20260905141612 | 21 | 58 | 12.9 | 0.0 | 0.00 | 0.00 | 0.00 | 88 | 990.4 |
| 20260905140113 | 21 | 57 | 12.9 | 0.0 | 0.00 | 0.00 | 0.00 | 88 | 990.4 |
| 20260905134612 | 21 | 55 | 12.9 | 0.0 | 0.00 | 0.00 | 0.00 | 93 | 989.5 |
| 20260905133113 | 21 | 60 | 12.9 | 0.0 | 0.00 | 0.00 | 0.00 | 93 | 989.5 |
| 20260905131607 | 21 | 67 | 12.9 | 0.0 | 0.00 | 0.00 | 0.00 | 93 | 989.5 |